Location: Erskine
(52.3216°N, 112.8806°W)
Time: 13:46:28
(UTC+00:00)

MOZHAYETS 4 - Pass Details

Date: 08 December 2023
Orbit: 654 x 672 km, 98.3° (Epoch: 03 March)

Event Time Altitude Azimuth Distance (km) Brightness Sun altitude
Rises 00:00:13 0° 13° (NNE) 3,037 10.7 -6.1°
Reaches altitude 10° 00:02:28 10° 10° (N) 2,119 9.9 -6.3°
Maximum altitude 00:07:03 67° 289° (WNW) 737 8.1 -7.0°
Drops below altitude 10° 00:11:37 10° 208° (SSW) 2,104 11.2 -7.6°
Sets 00:13:51 0° 205° (SSW) 3,013 12.0 -7.9°
